Weather WX

World > North America > United States > Minnesota

Rockford, Minnesota Regional Weather

Lat: 45.09N, Lon: 93.74W
Wx Zone: MNZ059
Feedback

Rockford, MN Regional Weather

Expires:201906192100;;746560
ASUS43 KMPX 192010
RWRMN 
WEATHER ROUNDUP FOR MINNESOTA
NATIONAL WEATHER SERVICE TWIN CITIES/CHANHASSEN MN
300 PM CDT WED JUN 19 2019


NOTE: "FAIR" INDICATES FEW OR NO CLOUDS BELOW 12,000 FEET WITH NO
SIGNIFICANT WEATHER AND/OR OBSTRUCTIONS TO VISIBILITY. N/A MEANS
CURRENT SKY AND/OR WEATHER CONDITIONS ARE NOT AVAILABLE.


MNZ033>034-036-042>043-049>051-058-059-192100-
   Central Minnesota     
  
CITY           SKY/WX    TMP DP  RH WIND       PRES   REMARKS
ST CLOUD       FAIR      74  51  44 E10       29.79F                  
SAUK CENTRE    FAIR      73  52  46 NE9       29.80F                  
PAYNESVILLE    FAIR      73  55  52 SE7       29.80F                  
AITKIN         FAIR      72  48  43 E8        29.81F                  
PINE RIVER     FAIR      72  52  49 SE6       29.86F                  
BRAINERD       FAIR      77  48  35 SE12      29.82F                  
STAPLES        FAIR      70  48  46 E5        29.82S                  
LONG PRAIRIE   PTSUNNY   73  52  46 SE7       29.81F                  
LITTLE FALLS   FAIR      72  50  46 CALM      29.81F                  
LITCHFIELD     FAIR      79  59  50 E5        29.79F                  
BUFFALO        FAIR      74  52  46 MISG      29.79F                  
MAPLE LAKE       N/A     76  56  49 CALM      29.80F                  
HUTCHINSON     PTSUNNY   75  54  49 NE8       29.79F                  
$$

SKY/WX - Weather  TMP - Temperature  DP - Dew Point  RH - Relative Humidity
WIND - Wind Direction/Speed PRES - Barometric Pressure VSB - Visibility
WCI - Wind Chill Index E13G22 Wind - East Wind 13 mph/Gusts of 22 mph